Location: Newark
(49.8348°N, 24.0280°E)
Time: 00:43:32
(UTC+00:00)

Explorer 7 - Pass Details

Date: 18 January 2020
Orbit: 485 x 679 km, 50.3° (Epoch: 20 February)

Event Time Altitude Azimuth Distance (km) Brightness Sun altitude
Rises 04:40:41 0° 285° (WNW) 2,627 - -14.6°
Reaches altitude 10° 04:42:52 10° 280° (W) 1,764 - -14.3°
Exits shadow 04:44:31 23° 271° (W) 1,156 7.9 -14.0°
Maximum altitude 04:46:46 52° 204° (SSW) 682 7.2 -13.7°
Drops below altitude 10° 04:50:53 10° 128° (SE) 1,869 10.7 -13.0°
Sets 04:53:15 0° 124° (ESE) 2,801 12.0 -12.7°
